TimeMST,TemperatureF,Dew PointF,Humidity,Sea Level PressureIn,VisibilityMPH,Wind Direction,Wind SpeedMPH,Gust SpeedMPH,PrecipitationIn,Events,Conditions,WindDirDegrees,DateUTC
12:15 AM,24.8,17.6,74,30.22,10.0,South,3.5,-,N/A,,Clear,180,2013-01-09 07:15:00
12:35 AM,28.4,19.4,69,30.23,10.0,Calm,Calm,-,N/A,,Clear,0,2013-01-09 07:35:00
12:55 AM,26.6,17.6,69,30.23,10.0,Calm,Calm,-,N/A,,Clear,0,2013-01-09 07:55:00
1:15 AM,24.8,15.8,69,30.23,10.0,Calm,Calm,-,N/A,,Clear,0,2013-01-09 08:15:00
1:35 AM,26.6,21.2,80,30.25,10.0,ESE,3.5,-,N/A,,Clear,110,2013-01-09 08:35:00
1:55 AM,28.4,19.4,69,30.25,10.0,ESE,3.5,-,N/A,,Clear,110,2013-01-09 08:55:00
2:15 AM,26.6,19.4,74,30.25,10.0,NNE,4.6,-,N/A,,Clear,20,2013-01-09 09:15:00
2:35 AM,23.0,15.8,74,30.24,10.0,NNW,6.9,-,N/A,,Clear,340,2013-01-09 09:35:00
2:55 AM,21.2,17.6,86,30.24,10.0,NNE,5.8,-,N/A,,Clear,20,2013-01-09 09:55:00
3:15 AM,23.0,19.4,86,30.23,10.0,North,5.8,-,N/A,,Clear,10,2013-01-09 10:15:00
3:35 AM,26.6,17.6,69,30.23,10.0,North,5.8,-,N/A,,Clear,360,2013-01-09 10:35:00
3:55 AM,23.0,17.6,80,30.23,10.0,NNE,4.6,-,N/A,,Clear,20,2013-01-09 10:55:00
4:15 AM,24.8,17.6,74,30.22,10.0,North,6.9,-,N/A,,Clear,10,2013-01-09 11:15:00
4:35 AM,23.0,15.8,74,30.21,10.0,NE,3.5,-,N/A,,Clear,40,2013-01-09 11:35:00
4:55 AM,19.4,12.2,74,30.22,10.0,Calm,Calm,-,N/A,,Clear,0,2013-01-09 11:55:00
5:15 AM,21.2,15.8,80,30.22,10.0,Calm,Calm,-,N/A,,Clear,0,2013-01-09 12:15:00
5:35 AM,23.0,15.8,74,30.23,10.0,South,3.5,-,N/A,,Clear,190,2013-01-09 12:35:00
5:55 AM,19.4,12.2,74,30.24,10.0,South,8.1,-,N/A,,Clear,180,2013-01-09 12:55:00
6:35 AM,21.2,15.8,80,30.25,10.0,SE,6.9,-,N/A,,Clear,140,2013-01-09 13:35:00
6:55 AM,19.4,12.2,74,30.26,10.0,South,4.6,-,N/A,,Clear,190,2013-01-09 13:55:00
7:15 AM,19.4,14.0,80,30.26,10.0,South,8.1,-,N/A,,Clear,180,2013-01-09 14:15:00
7:35 AM,21.2,15.8,80,30.26,10.0,South,5.8,-,N/A,,Clear,170,2013-01-09 14:35:00
8:15 AM,26.6,17.6,69,30.28,10.0,SSE,8.1,-,N/A,,Clear,160,2013-01-09 15:15:00
8:35 AM,26.6,19.4,74,30.28,10.0,SSE,8.1,-,N/A,,Clear,150,2013-01-09 15:35:00
9:15 AM,32.0,19.4,60,30.29,10.0,Calm,Calm,-,N/A,,Clear,0,2013-01-09 16:15:00
9:55 AM,28.4,21.2,74,30.31,10.0,Calm,Calm,-,N/A,,Clear,0,2013-01-09 16:55:00
10:15 AM,35.6,23.0,60,30.30,10.0,SSE,3.5,-,N/A,,Clear,150,2013-01-09 17:15:00
10:55 AM,37.4,23.0,56,30.28,10.0,WNW,3.5,-,N/A,,Clear,290,2013-01-09 17:55:00
11:15 AM,39.2,23.0,52,30.26,10.0,Calm,Calm,-,N/A,,Clear,0,2013-01-09 18:15:00
11:35 AM,42.8,26.6,53,30.24,10.0,Calm,Calm,-,N/A,,Clear,0,2013-01-09 18:35:00
11:55 AM,44.6,24.8,46,30.23,10.0,East,6.9,-,N/A,,Clear,100,2013-01-09 18:55:00
12:15 PM,44.6,26.6,49,30.21,10.0,ENE,8.1,-,N/A,,Clear,70,2013-01-09 19:15:00
12:35 PM,44.6,24.8,46,30.20,10.0,ESE,6.9,-,N/A,,Clear,110,2013-01-09 19:35:00
12:55 PM,46.4,24.8,43,30.19,10.0,East,8.1,-,N/A,,Clear,90,2013-01-09 19:55:00
1:15 PM,48.2,24.8,40,30.18,10.0,SSE,6.9,-,N/A,,Clear,160,2013-01-09 20:15:00
1:35 PM,48.2,21.2,34,30.17,10.0,SSW,3.5,-,N/A,,Clear,210,2013-01-09 20:35:00
1:55 PM,48.2,21.2,34,30.17,10.0,Calm,Calm,-,N/A,,Clear,0,2013-01-09 20:55:00
2:15 PM,51.8,24.8,35,30.16,10.0,Calm,Calm,-,N/A,,Clear,0,2013-01-09 21:15:00
2:35 PM,51.8,21.2,30,30.15,10.0,NW,3.5,-,N/A,,Clear,310,2013-01-09 21:35:00
2:55 PM,50.0,24.8,37,30.15,10.0,Calm,Calm,-,N/A,,Clear,0,2013-01-09 21:55:00
3:15 PM,51.8,24.8,35,30.14,10.0,Calm,Calm,-,N/A,,Clear,0,2013-01-09 22:15:00
3:35 PM,51.8,24.8,35,30.14,10.0,NNE,4.6,-,N/A,,Clear,30,2013-01-09 22:35:00
3:55 PM,51.8,24.8,35,30.14,10.0,NE,5.8,-,N/A,,Clear,50,2013-01-09 22:55:00
4:15 PM,48.2,24.8,40,30.13,10.0,NNE,4.6,-,N/A,,Clear,20,2013-01-09 23:15:00
4:35 PM,46.4,23.0,40,30.13,10.0,North,5.8,-,N/A,,Clear,350,2013-01-09 23:35:00
4:55 PM,42.8,23.0,46,30.12,10.0,NNW,9.2,-,N/A,,Clear,340,2013-01-09 23:55:00
5:15 PM,41.0,23.0,49,30.11,10.0,NNW,5.8,-,N/A,,Clear,330,2013-01-10 00:15:00
5:35 PM,39.2,24.8,56,30.11,10.0,NNW,5.8,-,N/A,,Clear,340,2013-01-10 00:35:00
5:55 PM,39.2,23.0,52,30.10,10.0,NNW,4.6,-,N/A,,Clear,340,2013-01-10 00:55:00
6:15 PM,37.4,21.2,52,30.10,10.0,NW,3.5,-,N/A,,Clear,310,2013-01-10 01:15:00
6:35 PM,39.2,23.0,52,30.09,10.0,NNW,8.1,-,N/A,,Clear,330,2013-01-10 01:35:00
6:55 PM,37.4,23.0,56,30.08,10.0,NNW,5.8,-,N/A,,Clear,340,2013-01-10 01:55:00
7:15 PM,37.4,21.2,52,30.08,10.0,North,6.9,-,N/A,,Clear,360,2013-01-10 02:15:00
7:35 PM,37.4,21.2,52,30.07,10.0,NNE,6.9,-,N/A,,Clear,30,2013-01-10 02:35:00
8:15 PM,35.6,21.2,56,30.06,10.0,NNE,8.1,-,N/A,,Clear,20,2013-01-10 03:15:00
8:35 PM,33.8,21.2,60,30.06,10.0,Calm,Calm,-,N/A,,Clear,0,2013-01-10 03:35:00
8:55 PM,30.2,19.4,64,30.06,10.0,Calm,Calm,-,N/A,,Clear,0,2013-01-10 03:55:00
9:15 PM,30.2,21.2,69,30.06,10.0,South,4.6,-,N/A,,Clear,190,2013-01-10 04:15:00
9:35 PM,30.2,21.2,69,30.05,10.0,Calm,Calm,-,N/A,,Clear,0,2013-01-10 04:35:00
9:55 PM,30.2,19.4,64,30.05,10.0,Calm,Calm,-,N/A,,Clear,0,2013-01-10 04:55:00
10:15 PM,32.0,19.4,60,30.03,10.0,Calm,Calm,-,N/A,,Clear,0,2013-01-10 05:15:00
10:35 PM,28.4,19.4,69,30.03,10.0,ENE,9.2,-,N/A,,Clear,60,2013-01-10 05:35:00
10:55 PM,28.4,17.6,64,30.02,10.0,NE,5.8,-,N/A,,Clear,40,2013-01-10 05:55:00
11:15 PM,30.2,17.6,60,30.02,10.0,ENE,10.4,-,N/A,,Clear,60,2013-01-10 06:15:00
11:35 PM,28.4,17.6,64,30.01,10.0,NE,4.6,-,N/A,,Clear,40,2013-01-10 06:35:00
11:55 PM,26.6,15.8,64,30.01,10.0,Calm,Calm,-,N/A,,Clear,0,2013-01-10 06:55:00